AWOS - Automated Weather Observation System

 

0
0
0
0

 

AWOS from is a family of real-time weather observation systems specially designed to detect, report and disseminate weather conditions at airports. It intended use is for various sized of airports, ranging from small domestic landing strips or remotely operated airports to large international airports.

We can offer a turn-key solution including sensors, installation, training comissioning etc, or we can offer you just the customized software package and the rest is done by the customer himself or by a 3rd party. We can also offer the sensors preferred by the customer or we can use the sensors existing at the airport today and implement them in the new AWOS system.

Real Time Data from Combitech in Linköping

METAR CABX 192120Z AUTO VRB06KT 8000 R01/P2000N R19///// BR BKN012/// OVC015/// M03/M06 Q1005

Linköping Sweden, Lat: 58.39172, Lon: 15.56505

 

 

 

 

 

Combitech at World ATM Congress in Madrid, 6-8 March 2018

The Combitech AWOS/ATIS team will participate at the World ATM Congress in Madrid together with the Saab Air Traffic..


Örnsköldsvik Airport orders DRIWS

Örnsköldsvik Airport orders DRIWS-system for 17 vehicles. (Digital Runway Incursion Warning System)


Show all


AWOS Airport weather data:
     http://wx.awos.se

 

2018-02-19 21:47:35